Showing default

COSMOS 220, 3229

Orbit data source: Space-Track

COSMOS 220, 3229 is a payload satellite owned by OKB-10 (CIS) in LEO that was launched on Tue, 07 May 1968 UTC via a KOSMOS 11K65M launch vehicle from the Plesetsk Missile And Space Complex (PKMTR). Payload-class satellites include a variety of spacecraft equipped with specific instruments for various scientific and technological missions. These include communications satellites like Starlink; space stations such as the ISS; scientific satellites like the Hubble; Earth observation satellites from companies like Planet Labs, Umbra, and HawkEye 360; GPS; miniature CubeSats for education and research; and military/defense satellites.

Loading next visibility...
Identifier
3229, 1968-040A
Orbit
LEO
Last TLE update
10 hours ago
Origin
Manufacturer
OKB-10
Mission
Defense Navigation
Bus & Motor
KAUR-1 11F617, Unknown motor
Mass
775 kg wet, 775 kg dry
Launch date (UTC)
1968-05-07 (57 years ago)
Launch vehicle
KOSMOS 11K65M
Launch site
Plesetsk Missile And Space Complex (PKMTR)
Object type
Payload
Rocket body
Debris
Shape & HBR
Cyl + 1 Rod, 17 m
Radar Cross Section
9.978 m², Large (>1 m²)

Expand to show TLE details & history

TLE from 10 hours ago
0 COSMOS 220
1 03229U 68040A   25189.87202837  .00000531  00000-0  74078-4 0  9995
2 03229  74.0257 138.2709 0033372 132.1942 228.2076 14.80079041 39589
Epoch: 2025-07-08T20:55Z
TLE epoch observation values (Epoch: 2025-07-08T20:55:43.251Z)
Latitude
-0.00005°
Longitude
-102.72011°
Altitude
647.369 km
Speed
7.526 km/s
True Right ascension
09h 13m 05s
True Declination
0° 00' 00"
Sunlit
Object was in daylight at epoch
Visualization orbit readout
Latitude
68.91101°
Longitude
-55.96415°
Altitude
627.284 km
Speed
7.559 km/s
Apparent Right ascension
08h 47m 15s
Apparent Declination
22° 14' 18"
Sunlit
Object is in daylight
Visualization observer readout
Local Sidereal Time
19:09:38
Azimuth
335.29° NNW
Elevation
-23.807°
Doppler factor
1
Orbital elements
Apogee altitude
650.027 km
Perigee altitude
603.275 km
Semi-major axis
7,004.788 km
Eccentricity
0.00334
Inclination
74.0257°
RAAN
138.2709°
Arg. of periapsis
132.1942°
True anomaly
Unknown
Mean anomaly
228.2076°
Eccentric anomaly
Unknown
Mean motion
3.70212 °/min
Orbital period
97.24 mins
BSTAR
0.000074078
Loading maneuver chart data...
Loading SW <> Apogee altitude chart data...
Loading historical data...
Loading historical data...
Loading historical data...
Loading historical data...
Loading historical data...
Loading historical data...
Loading historical data...
Other satellites on launch #40 in the year 1968 (1968-05-07 UTC)

COSMOS 220 Visibility forecast

Observer location: undefined°, undefined°

Span
Click to sort rows by Start time (UTC) header in descending order
Start Az.
Max El. time (UTC)
Max El. Az.
Max El.
End time (UTC)
End Az.
6 mins2025-07-09 07:13:12.954Z12.875° NNE2025-07-09 07:16:12.954Z69.285° E24.412°2025-07-09 07:19:12.954Z118.64° SE
5 mins2025-07-09 08:53:12.954Z293.755° NW2025-07-09 08:55:12.954Z253.152° W22.332°2025-07-09 08:58:12.954Z207.307° SW
6 mins2025-07-09 21:24:12.954Z170.933° S2025-07-09 21:26:12.954Z128.92° SE37.043°2025-07-09 21:30:12.954Z32.137° NE
|